Weather History for Newport News, VA

Change the Weather History Date:

Friday, February 1, 2013

  Actual Average Record
Temperature  
Mean Temperature 35 °F -  
Max Temperature 43 °F 46 °F 79 °F (2002)
Min Temperature 25 °F 28 °F 11 °F (1977)
Degree Days  
Heating Degree Days 30    
Moisture  
Dew Point 8 °F    
Average Humidity 35    
Maximum Humidity 54    
Minimum Humidity 4    
Precipitation  
Precipitation 0.00 in - - ()
Sea Level Pressure  
Sea Level Pressure 30.11 in    
Wind  
Wind Speed 12 mph (WNW)    
Max Wind Speed 25 mph    
Max Gust Speed 41 mph    
Visibility 10 miles    
Events Snow    
Averages and records for this station are not official NWS values.
T = Trace of Precipitation, MM = Missing Value Source: NWS Daily Summary

Daily Weather History Graph

Daily Weather History Graph

Search for Another Location

Airport:

Trip Planner

Search our weather history database for the weather conditions in past years. The results will help you decide how hot, cold, wet, or windy it might be!

Date:

Astronomy

Feb. 01, 2013 Rise Set
Actual Time 7:08 AM EST 5:31 PM EST
Civil Twilight 6:41 AM EST 5:58 PM EST
Nautical Twilight 6:10 AM EST 6:29 PM EST
Astronomical Twilight 5:39 AM EST 7:00 PM EST
Moon 11:25 PM EST (2/1) 9:49 AM EST (2/1)
Length of Visible Light 11h 17m
Length of Day
10h 22m
Waning Gibbous, 70% of the Moon is Illuminated
Feb 1
Waning Gibbous
Feb 3
Last Quarter
Feb 10
New
Feb 17
First Quarter
Feb 25
Full

Hourly Weather History & Observations

Time (EST) Temp. Windchill Dew Point Humidity Pressure Visibility Wind Dir Wind Speed Gust Speed Precip Events Conditions
12:54 AM 37.9 °F 32.7 °F 18.0 °F 45% 29.99 in 10.0 mi West 6.9 mph - N/A   Clear
1:54 AM 35.1 °F 28.6 °F 19.9 °F 54% 29.98 in 10.0 mi SSW 8.1 mph - N/A   Clear
2:54 AM 36.0 °F 31.1 °F 19.9 °F 52% 29.93 in 10.0 mi SSE 5.8 mph - N/A   Partly Cloudy
3:54 AM 39.0 °F 32.3 °F 21.0 °F 49% 29.89 in 10.0 mi South 10.4 mph - N/A   Clear
4:54 AM 39.2 °F 31.2 °F 21.2 °F 49% 29.85 in 10.0 mi South 13.8 mph - N/A   Overcast
5:54 AM 42.1 °F 34.2 °F 23.0 °F 47% 29.83 in 10.0 mi SSW 16.1 mph 24.2 mph N/A   Overcast
6:54 AM 41.0 °F 32.2 °F 24.1 °F 51% 29.85 in 10.0 mi SW 18.4 mph 24.2 mph N/A   Overcast
7:54 AM 43.0 °F 34.2 °F 25.0 °F 49% 29.90 in 10.0 mi West 20.7 mph 29.9 mph N/A   Mostly Cloudy
8:54 AM 41.0 °F 30.9 °F 21.9 °F 47% 29.97 in 10.0 mi NW 24.2 mph 41.4 mph N/A   Overcast
9:54 AM 37.4 °F 28.2 °F 10.4 °F 33% 30.02 in 10.0 mi WNW 16.1 mph 40.3 mph N/A   Overcast
10:54 AM 39.0 °F 28.0 °F 3.0 °F 22% 30.06 in 9.0 mi West 25.3 mph 39.1 mph 0.00 in   Scattered Clouds
11:54 AM 39.9 °F 30.0 °F 3.0 °F 21% 30.10 in 10.0 mi WNW 21.9 mph 33.4 mph N/A   Clear
12:54 PM 39.0 °F 28.8 °F 3.9 °F 23% 30.12 in 10.0 mi WNW 21.9 mph 32.2 mph N/A   Clear
1:54 PM 39.0 °F 29.6 °F 1.9 °F 21% 30.14 in 9.0 mi NW 18.4 mph 27.6 mph 0.00 in   Unknown
2:54 PM 37.4 °F 28.2 °F 3.2 °F 24% 30.16 in 9.0 mi West 16.1 mph 27.6 mph N/A Snow Light Snow
3:54 PM 36.0 °F 26.0 °F -0.9 °F 21% 30.20 in 10.0 mi NW 17.3 mph - 0.00 in   Clear
4:54 PM 35.1 °F 26.9 °F -0.9 °F 22% 30.24 in 10.0 mi WNW 11.5 mph - 0.00 in   Clear
5:54 PM 32.0 °F 25.6 °F -0.0 °F 26% 30.27 in 10.0 mi NW 6.9 mph - N/A   Clear
6:54 PM 30.9 °F 27.5 °F -0.0 °F 27% 30.30 in 10.0 mi North 3.5 mph - N/A   Clear
7:54 PM 30.0 °F 26.5 °F 1.9 °F 30% 30.31 in 10.0 mi NW 3.5 mph - N/A   Clear
8:54 PM 28.9 °F 22.8 °F 1.9 °F 32% 30.33 in 10.0 mi NW 5.8 mph - N/A   Clear
9:54 PM 28.0 °F 22.8 °F -38.9 °F 4% 30.36 in 10.0 mi NNW 4.6 mph - N/A   Clear
10:54 PM 27.0 °F 21.6 °F 5.0 °F 39% 30.38 in 10.0 mi North 4.6 mph - N/A   Clear
11:54 PM 25.0 °F 18.1 °F 7.0 °F 46% 30.39 in 10.0 mi North 5.8 mph - N/A   Clear